Find Starlink 34599

NORAD ID: 64919 Int'l Des: 2025-157 Owner: SPXS Country: US Constellation: starlink operational
LEOCIRCULAR

Live-Position

3D-Globus wird geladen...

Über Starlink 34599

Beschreibung wird geladen...

Nächste Überflüge

Passes for default location (London). Set your location on the main map for personalized predictions.

Höhenverlauf

Loading altitude history...

Zweizeiliger Elementsatz

1 64919U 25157R 26104.93224397 .00009039 00000-0 31691-3 0 9995
2 64919 53.1598 177.2437 0000613 82.2796 277.8274 15.30202412 41672
Epoch: 14. Apr. 2026 • Age: 8 hours

Aktueller Status

Höhe 484.6 km
Geschwindigkeit 7.62 km/s
Subsatellitenpunkt -30.24°S, 144.04°W
Startdatum 26. Juli 2025
Alter 0.7 years
Typ internet

Technische Details

Klassifizierung Payload
Masse 575.00 kg
Trockenmasse 530.00 kg
Gesamtmasse 575.00 kg
Länge 0.30 m
Durchmesser 4.10 m
Spannweite 29.00 m
Form Box + pan
Hersteller SPXS
Bus-Typ Starlink V2MO
Phasenstatus In Orbit
Besitzer/Staat SPXS/US

Most Searched